TimePDT,TemperatureF,Dew PointF,Humidity,Sea Level PressureIn,VisibilityMPH,Wind Direction,Wind SpeedMPH,Gust SpeedMPH,PrecipitationIn,Events,Conditions,WindDirDegrees,DateUTC
12:53 AM,46.9,43.0,86,30.39,9.0,Calm,Calm,-,N/A,,Clear,0,2013-10-15 07:53:00
1:53 AM,44.1,41.0,89,30.40,10.0,Calm,Calm,-,N/A,,Clear,0,2013-10-15 08:53:00
2:53 AM,45.0,42.1,90,30.38,10.0,Calm,Calm,-,N/A,,Clear,0,2013-10-15 09:53:00
3:03 AM,44.6,42.8,93,30.39,9.0,Calm,Calm,-,N/A,,Scattered Clouds,0,2013-10-15 10:03:00
3:53 AM,44.1,41.0,89,30.37,7.0,Calm,Calm,-,N/A,,Scattered Clouds,0,2013-10-15 10:53:00
4:01 AM,44.6,41.0,87,30.37,5.0,Calm,Calm,-,N/A,,Mostly Cloudy,0,2013-10-15 11:01:00
4:40 AM,44.6,44.6,100,30.38,1.0,Calm,Calm,-,N/A,,Overcast,0,2013-10-15 11:40:00
4:53 AM,45.0,43.0,93,30.37,0.8,Calm,Calm,-,N/A,,Mist,0,2013-10-15 11:53:00
5:53 AM,45.0,44.1,97,30.37,0.2,SE,3.5,-,N/A,Fog,Fog,130,2013-10-15 12:53:00
6:18 AM,44.6,42.8,93,30.37,0.2,SE,4.6,-,N/A,Fog,Fog,130,2013-10-15 13:18:00
6:53 AM,45.0,43.0,93,30.36,0.2,SE,4.6,-,N/A,Fog,Fog,140,2013-10-15 13:53:00
7:53 AM,45.0,43.0,93,30.37,0.2,SE,4.6,-,N/A,Fog,Fog,140,2013-10-15 14:53:00
8:53 AM,45.0,43.0,93,30.37,0.5,SE,3.5,-,N/A,Fog,Fog,140,2013-10-15 15:53:00
9:44 AM,46.4,44.6,93,30.36,1.0,SSE,3.5,-,N/A,,Overcast,150,2013-10-15 16:44:00
9:53 AM,46.0,45.0,96,30.36,1.5,Calm,Calm,-,N/A,,Overcast,0,2013-10-15 16:53:00
10:53 AM,48.0,46.0,93,30.35,1.5,Calm,Calm,-,N/A,,Overcast,0,2013-10-15 17:53:00
11:46 AM,50.0,46.4,87,30.33,1.5,Calm,Calm,-,N/A,,Overcast,0,2013-10-15 18:46:00
11:53 AM,51.1,46.0,83,30.33,1.8,Calm,Calm,-,N/A,,Haze,0,2013-10-15 18:53:00
12:23 PM,51.8,46.4,82,30.32,3.0,Calm,Calm,-,N/A,,Haze,0,2013-10-15 19:23:00
12:38 PM,53.6,46.4,77,30.32,4.0,Calm,Calm,-,N/A,,Haze,0,2013-10-15 19:38:00
12:53 PM,53.1,46.9,80,30.31,4.0,Variable,4.6,-,N/A,,Haze,0,2013-10-15 19:53:00
1:53 PM,54.0,46.0,75,30.29,6.0,NW,4.6,-,N/A,,Haze,320,2013-10-15 20:53:00
2:53 PM,55.9,46.0,69,30.27,10.0,WNW,4.6,-,N/A,,Haze,290,2013-10-15 21:53:00
3:53 PM,57.9,45.0,62,30.25,10.0,Calm,Calm,-,N/A,,Mostly Cloudy,0,2013-10-15 22:53:00
4:53 PM,60.1,45.0,57,30.23,10.0,Calm,Calm,-,N/A,,Scattered Clouds,0,2013-10-15 23:53:00
5:53 PM,57.0,46.0,67,30.22,10.0,Calm,Calm,-,N/A,,Mostly Cloudy,0,2013-10-16 00:53:00
6:53 PM,55.9,46.0,69,30.20,10.0,Calm,Calm,-,N/A,,Mostly Cloudy,0,2013-10-16 01:53:00
7:53 PM,54.0,46.0,75,30.20,10.0,Calm,Calm,-,N/A,,Mostly Cloudy,0,2013-10-16 02:53:00
8:53 PM,53.1,46.0,77,30.19,10.0,Calm,Calm,-,N/A,,Mostly Cloudy,0,2013-10-16 03:53:00
9:53 PM,52.0,46.0,80,30.19,10.0,Calm,Calm,-,N/A,,Clear,0,2013-10-16 04:53:00
10:53 PM,52.0,46.9,83,30.19,10.0,Calm,Calm,-,N/A,,Mostly Cloudy,0,2013-10-16 05:53:00
11:53 PM,52.0,46.9,83,30.19,10.0,Calm,Calm,-,N/A,,Overcast,0,2013-10-16 06:53:00